User: anonymous   Login
Location: Plymouth
(43.7570°N, 71.6890°W)
Time: 07:13:36
(UTC-04:00)
Language:

COSMOS 2406 - Orbit

View from above orbital plane
View from above orbital plane
View from above satellite
View from above satellite

Ground track
Ground track

The orbit data is extracted from the following two-line orbital elements,

1 28352U 04021A   16178.43513568  .00000010  00000-0  31816-4 0  9999
2 28352  70.9996 147.4295 0016240 277.0616  82.8658 14.11436314620649
Epoch (UTC): 26 June 2016 10:26:35
Eccentricity: 0.0016240
inclination: 70.9996°
perigee height: 843 km
apogee height: 866 km
right ascension of ascending node: 147.4295°
argument of perigee: 277.0616°
revolutions per day: 14.11436314
mean anomaly at epoch: 82.8658°
orbit number at epoch: 62064

The dashed part of the orbit path shows where the satellite is in the earth's shadow,  

DLR